Location: Davidschlag
(48.4333°N, 14.2833°E)
Time: 02:46:51
(UTC+00:00)

Cosmos 2150 Rocket - Pass Details

Date: 27 February 2020
Orbit: 748 x 808 km, 74.0° (Epoch: 03 April)

Event Time Altitude Azimuth Distance (km) Brightness Sun altitude
Rises 19:19:41 0° 334° (NNW) 3,305 7.9 -26.5°
Reaches altitude 10° 19:22:06 10° 331° (NNW) 2,379 7.1 -26.9°
Maximum altitude 19:27:27 63° 252° (WSW) 898 4.4 -27.7°
Enters shadow 19:28:23 54° 207° (SSW) 978 4.4 -27.9°
